Location: Weatherford
(35.5260°N, 98.7070°W)
Time: 06:06:22
(UTC-05:00)

Amateur Radio Satellites - All Passes

Search period start: 19 October 2017 05:36
Search period end: 20 October 2017 05:36
Location: Weatherford, 35.5260°N, 98.7070°W

Satellite Date Start Highest point End Downlink Frequencies (MHz)
Time Altitude Azimuth
RS-15 19 Oct 05:37:13 05:44:39 17° 340° (NNW) 05:52:01 29.354- 29.394
DOVE 4 19 Oct 06:22:15 06:27:07 49° 100° (E) 06:32:10 437.250
NO-84 19 Oct 06:24:45 06:26:09 11° 333° (NNW) 06:27:30 435.350 FM
KKS-1 19 Oct 06:25:36 06:29:49 45° 261° (W) 06:34:06 437.445
CUBESAT XI-V 19 Oct 06:35:00 06:36:31 11° 269° (W) 06:38:02 437.345
ITAMSAT 1 19 Oct 06:39:29 06:42:45 17° 296° (WNW) 06:46:01 435.822/435.867
STRAND 1 19 Oct 06:49:54 06:51:13 11° 62° (ENE) 06:52:32 437.568
CUTE-I 19 Oct 06:57:42 07:01:47 22° 95° (E) 07:05:50 437.470
XW-2F 19 Oct 06:58:19 07:01:08 20° 95° (E) 07:03:55 145.980 - 146.000
KAITUO 1B 19 Oct 06:59:32 07:01:49 16° 94° (E) 07:04:06 145.475/437.950
LilacSat-2 19 Oct 07:00:04 07:03:13 25° 96° (E) 07:06:20 437.200
STARS 19 Oct 07:02:35 07:06:45 44° 260° (W) 07:10:59 437.465
AO-7 19 Oct 07:02:58 07:08:59 23° 303° (WNW) 07:15:00 .
XW-2D 19 Oct 07:09:03 07:12:25 31° 97° (E) 07:15:45 145.860 - 145.880
NUDT-PHONESAT 19 Oct 07:15:34 07:18:36 24° 96° (E) 07:21:36 437.300
XW-2B 19 Oct 07:22:16 07:25:52 45° 99° (E) 07:29:26 145.730 - 145.750
SO-50 19 Oct 07:38:06 07:42:27 53° 116° (ESE) 07:46:49 436.795
XW-2C 19 Oct 07:45:19 07:49:03 81° 282° (WNW) 07:52:47 145.795 - 145.815
O/OREOS (USA 219) 19 Oct 07:52:04 07:56:40 71° 69° (ENE) 08:01:13 437.305
JUGNU 19 Oct 07:55:33 07:58:38 14° 172° (S) 08:01:42 437.505
RS-15 19 Oct 07:57:22 08:04:27 17° 18° (NNE) 08:11:21 29.354- 29.394
DOVE 4 19 Oct 08:01:08 08:04:24 18° 292° (WNW) 08:07:44 437.250
CUTE 1.7 + AOD 2 19 Oct 08:02:55 08:06:31 27° 96° (E) 08:10:06 437.475
SEEDS 19 Oct 08:13:08 08:16:20 21° 95° (E) 08:19:32 437.485
HO-68 19 Oct 08:24:02 08:31:03 53° 101° (E) 08:38:01 435.675
STRAND 1 19 Oct 08:24:32 08:29:39 81° 257° (WSW) 08:34:49 437.568
XW-2F 19 Oct 08:32:18 08:35:07 21° 289° (WNW) 08:37:55 145.980 - 146.000
KAITUO 1B 19 Oct 08:32:42 08:35:47 26° 288° (WNW) 08:38:52 145.475/437.950
PCSat 19 Oct 08:33:52 08:38:26 29° 108° (ESE) 08:43:01 145.827
LilacSat-2 19 Oct 08:34:45 08:37:16 17° 290° (WNW) 08:39:47 437.200
CUTE-I 19 Oct 08:36:55 08:41:55 41° 289° (WNW) 08:46:54 437.470
AAUSAT CUBESAT 2 19 Oct 08:41:29 08:44:27 19° 94° (E) 08:47:25 437.432
XW-2D 19 Oct 08:44:18 08:46:16 14° 292° (WNW) 08:48:14 145.860 - 145.880
CUBEBUG 2 19 Oct 08:48:17 08:52:51 55° 100° (E) 08:57:14 437.445
NUDT-PHONESAT 19 Oct 08:49:52 08:52:15 17° 290° (WNW) 08:54:36 437.300
AO-73 19 Oct 08:50:44 08:52:44 13° 92° (E) 08:54:42 145.935
XW-2A 19 Oct 09:10:22 09:13:41 65° 101° (E) 09:16:58 145.665 - 145.685
ZACube-1 19 Oct 09:10:30 09:14:12 26° 96° (E) 09:17:46 437.345
SO-50 19 Oct 09:20:26 09:23:13 16° 313° (NW) 09:25:59 436.795
UNISAT 6 19 Oct 09:26:47 09:28:46 13° 65° (ENE) 09:30:45 437.425
UWE-3 19 Oct 09:29:17 09:33:48 90° 323° (NW) 09:38:10 435.000/436.395/437.385
CUTE 1.7 + AOD 2 19 Oct 09:39:03 09:42:08 20° 291° (WNW) 09:45:14 437.475
TIGRISAT 19 Oct 09:40:55 09:43:50 17° 66° (ENE) 09:46:45 435.000
JUGNU 19 Oct 09:43:17 09:46:51 17° 182° (S) 09:50:25 437.505
FO-29 19 Oct 09:48:19 09:53:29 89° 83° (E) 09:58:58 435.910
SEEDS 19 Oct 09:48:31 09:51:56 25° 289° (WNW) 09:55:21 437.485
Oscar 11 19 Oct 09:49:17 09:53:24 44° 99° (E) 09:57:29 .
RS-15 19 Oct 10:09:51 10:21:12 47° 49° (NE) 10:31:56 29.354- 29.394
HO-68 19 Oct 10:12:31 10:18:19 27° 297° (WNW) 10:24:08 435.675
YUBILEINY 19 Oct 10:13:13 10:21:39 59° 91° (E) 10:30:09 435.215
AAUSAT CUBESAT 2 19 Oct 10:16:22 10:19:52 27° 288° (WNW) 10:23:22 437.432
SRMSAT 19 Oct 10:16:39 10:19:13 13° 169° (SSE) 10:21:48 437.500
PCSat 19 Oct 10:16:47 10:21:40 34° 304° (WNW) 10:26:35 145.827
nSIGHT-1 19 Oct 10:17:40 10:20:25 27° 131° (SE) 10:23:10 .
DELFI C3 19 Oct 10:21:44 10:24:38 19° 95° (E) 10:27:33 145.870
AO-73 19 Oct 10:25:03 10:29:10 43° 287° (WNW) 10:33:11 145.935
CUBEBUG 2 19 Oct 10:26:48 10:28:53 13° 295° (WNW) 10:30:57 437.445
ISS 19 Oct 10:46:46 10:49:55 51° 134° (SE) 10:53:06 437.550
ZACube-1 19 Oct 10:46:54 10:50:18 22° 291° (WNW) 10:53:37 437.345
PRISM 19 Oct 10:53:43 10:57:35 47° 74° (ENE) 11:01:29 437.425
UNISAT 6 19 Oct 11:00:21 11:04:53 59° 260° (W) 11:09:31 437.425
AIST 2D 19 Oct 11:03:21 11:03:46 10° 68° (ENE) 11:04:11 435.315
TIGRISAT 19 Oct 11:15:43 11:20:05 43° 261° (W) 11:24:33 435.000
NO-84 19 Oct 11:20:21 11:23:29 24° 37° (NE) 11:26:24 435.350 FM
EO-88 19 Oct 11:24:05 11:27:41 62° 100° (E) 11:31:16 145.990 - 145.960
Oscar 11 19 Oct 11:26:56 11:29:07 14° 293° (WNW) 11:31:17 .
Max Valier Satellite 19 Oct 11:31:00 11:34:40 69° 283° (WNW) 11:38:17 145.860
JUGNU 19 Oct 11:32:55 11:35:05 12° 192° (SSW) 11:37:15 437.505
nSIGHT-1 19 Oct 11:53:59 11:56:40 24° 327° (NNW) 11:59:21 .
DELFI C3 19 Oct 11:56:04 11:59:19 25° 289° (WNW) 12:02:34 145.870
SRMSAT 19 Oct 12:03:53 12:07:37 17° 179° (S) 12:11:20 437.500
YUBILEINY 19 Oct 12:11:58 12:18:54 26° 289° (WNW) 12:25:55 435.215
EO-79 19 Oct 12:12:46 12:16:34 32° 72° (ENE) 12:20:23 145.935-145.965
POLYITAN 1 19 Oct 12:17:01 12:20:56 36° 72° (ENE) 12:24:52 437.675
LO-87 19 Oct 12:17:49 12:21:07 32° 98° (E) 12:24:22 145.935 - 145.965
RS-15 19 Oct 12:22:37 12:33:39 50° 251° (WSW) 12:44:09 29.354- 29.394
ISS 19 Oct 12:24:23 12:26:36 17° 331° (NNW) 12:28:50 437.550
PRISM 19 Oct 12:32:11 12:33:04 11° 268° (W) 12:33:57 437.425
AIST 2D 19 Oct 12:33:16 12:36:33 37° 262° (W) 12:39:50 435.315
QB50P2 19 Oct 12:36:50 12:41:04 73° 76° (ENE) 12:45:21 145.880/145.840
BEESAT 3 19 Oct 12:38:35 12:42:12 34° 113° (ESE) 12:45:51 437.485
NANOSAT C BR1 19 Oct 12:41:20 12:45:31 64° 76° (ENE) 12:49:45 145.865
DUCHIFAT 1 19 Oct 12:52:43 12:56:56 77° 77° (ENE) 13:01:11 145.980
NO-84 19 Oct 12:57:45 13:00:48 27° 235° (SW) 13:03:39 435.350 FM
AO-85 19 Oct 13:04:30 13:04:48 10° 108° (ESE) 13:05:07 145.980
BUGSAT 1 19 Oct 13:05:58 13:09:22 25° 70° (ENE) 13:12:48 437.445
VELOX 1 19 Oct 13:11:47 13:14:07 14° 93° (E) 13:16:28 145.980
ESTCUBE 1 19 Oct 13:15:24 13:19:53 75° 283° (WNW) 13:24:20 437.505/2401.250
EO-79 19 Oct 13:49:30 13:52:21 17° 266° (W) 13:55:14 145.935-145.965
LO-87 19 Oct 13:52:30 13:54:10 13° 292° (WNW) 13:55:50 145.935 - 145.965
SRMSAT 19 Oct 13:52:55 13:56:02 14° 189° (S) 13:59:08 437.500
POLYITAN 1 19 Oct 13:54:12 13:56:48 16° 267° (W) 13:59:24 437.675
BEESAT 2 19 Oct 13:56:03 14:00:02 79° 118° (ESE) 14:04:05 435.950
Oscar 19 19 Oct 14:04:04 14:09:07 58° 73° (ENE) 14:14:11 437.125/150
M-CUBED/EXP-1 PRIME 19 Oct 14:08:55 14:12:22 76° 72° (ENE) 14:15:41 437.505
SPROUT 19 Oct 14:10:02 14:14:20 75° 284° (WNW) 14:18:36 437.525
AO-7 19 Oct 14:16:34 14:20:54 15° 52° (NE) 14:25:14 .
BEESAT 3 19 Oct 14:16:59 14:19:49 18° 309° (NW) 14:22:40 437.485
DX 1 19 Oct 14:20:53 14:24:05 20° 95° (E) 14:27:16 434.975-435.025
Gurwin Techsat 1B 19 Oct 14:26:32 14:31:46 65° 74° (ENE) 14:37:03 435.225
AO-85 19 Oct 14:40:55 14:44:39 48° 302° (WNW) 14:48:29 145.980
BUGSAT 1 19 Oct 14:41:19 14:44:36 22° 265° (W) 14:47:56 437.445
VELOX 1 19 Oct 14:46:31 14:50:43 44° 287° (WNW) 14:54:56 145.980
UKube-1 19 Oct 14:46:58 14:50:29 24° 97° (E) 14:53:59 .
50 SAT 19 Oct 14:49:18 14:52:34 56° 101° (E) 14:55:48 437.505
BEESAT 19 Oct 15:45:43 15:47:53 13° 92° (E) 15:50:02 436.000
Oscar 19 19 Oct 15:46:04 15:48:45 14° 268° (W) 15:51:25 437.125/150
DX 1 19 Oct 15:56:24 16:00:15 31° 289° (WNW) 16:04:05 434.975-435.025
AO-7 19 Oct 16:04:03 16:12:20 78° 70° (ENE) 16:20:38 .
Gurwin Techsat 1B 19 Oct 16:09:47 16:12:06 13° 268° (W) 16:14:27 435.225
SO-50 19 Oct 16:12:23 16:16:04 23° 51° (NE) 16:19:47 436.795
ITAMSAT 1 19 Oct 16:13:32 16:18:37 61° 73° (ENE) 16:23:45 435.822/435.867
UKube-1 19 Oct 16:22:52 16:26:23 25° 291° (WNW) 16:29:53 .
MOZHAYETS 4 19 Oct 16:45:08 16:49:43 72° 101° (ESE) 16:54:15
nSIGHT-1 19 Oct 16:47:40 16:49:17 13° 27° (NNE) 16:50:54 .
CUBESAT XI-V 19 Oct 16:54:47 16:57:52 18° 94° (E) 17:00:56 437.345
ITUPSAT 1 19 Oct 17:04:57 17:09:46 84° 285° (WNW) 17:14:32 437.325
ISS 19 Oct 17:17:24 17:19:52 19° 31° (NNE) 17:22:21 437.550
BEESAT 19 Oct 17:21:16 17:25:56 54° 286° (WNW) 17:30:33 436.000
PCSat 19 Oct 17:25:26 17:28:18 14° 47° (NE) 17:31:10 145.827
DOVE 4 19 Oct 17:25:33 17:29:10 30° 71° (ENE) 17:32:53 437.250
XW-2D 19 Oct 17:49:32 17:50:30 11° 67° (ENE) 17:51:28 145.860 - 145.880
SO-50 19 Oct 17:52:21 17:56:35 36° 246° (WSW) 18:00:52 436.795
ITAMSAT 1 19 Oct 17:55:58 17:58:26 13° 268° (W) 18:00:54 435.822/435.867
AO-7 19 Oct 18:00:18 18:05:45 19° 266° (W) 18:11:14 .
XW-2B 19 Oct 18:01:37 18:03:50 15° 69° (ENE) 18:06:02 145.730 - 145.750
CUTE-I 19 Oct 18:16:34 18:20:57 27° 68° (ENE) 18:25:22 437.470
KKS-1 19 Oct 18:19:13 18:23:28 41° 99° (E) 18:27:41 437.445
nSIGHT-1 19 Oct 18:22:43 18:25:56 80° 221° (SW) 18:29:07 .
XW-2C 19 Oct 18:23:33 18:26:51 29° 73° (ENE) 18:30:10 145.795 - 145.815
CUBESAT XI-V 19 Oct 18:31:05 18:35:18 37° 288° (WNW) 18:39:32 437.345
HO-68 19 Oct 18:50:05 18:56:01 29° 63° (ENE) 19:01:57 435.675
ISS 19 Oct 18:53:21 18:56:27 40° 227° (SW) 18:59:33 437.550
CUTE 1.7 + AOD 2 19 Oct 18:53:48 18:56:03 14° 67° (ENE) 18:58:17 437.475
STARS 19 Oct 18:54:37 18:58:47 39° 99° (E) 19:02:56 437.465
DOVE 4 19 Oct 19:04:06 19:06:55 18° 267° (W) 19:09:48 437.250
SEEDS 19 Oct 19:04:11 19:05:00 10° 66° (ENE) 19:05:50 437.485
PCSat 19 Oct 19:06:54 19:12:20 81° 245° (WSW) 19:17:44 145.827
KAITUO 1B 19 Oct 19:08:32 19:12:15 85° 81° (E) 19:15:59 145.475/437.950
XW-2F 19 Oct 19:08:44 19:12:31 72° 259° (W) 19:16:18 145.980 - 146.000
LilacSat-2 19 Oct 19:12:05 19:15:51 55° 261° (W) 19:19:36 437.200
XW-2D 19 Oct 19:20:36 19:24:14 43° 261° (W) 19:27:53 145.860 - 145.880
NUDT-PHONESAT 19 Oct 19:24:16 19:27:57 60° 260° (W) 19:31:38 437.300
XW-2B 19 Oct 19:34:19 19:37:42 30° 263° (W) 19:41:05 145.730 - 145.750
XW-2A 19 Oct 19:39:50 19:41:31 13° 69° (ENE) 19:43:12 145.665 - 145.685
CUBEBUG 2 19 Oct 19:42:58 19:47:04 32° 71° (ENE) 19:51:15 437.445
CUTE-I 19 Oct 19:56:05 20:00:49 33° 263° (W) 20:05:36 437.470
KKS-1 19 Oct 19:56:52 19:59:39 16° 294° (WNW) 20:02:25 437.445
XW-2C 19 Oct 19:58:46 20:01:03 15° 266° (W) 20:03:20 145.795 - 145.815
ZACube-1 19 Oct 20:03:49 20:06:37 16° 67° (ENE) 20:09:27 437.345
UWE-3 19 Oct 20:22:26 20:26:53 49° 74° (ENE) 20:31:24 435.000/436.395/437.385
O/OREOS (USA 219) 19 Oct 20:25:14 20:26:47 12° 98° (E) 20:28:20 437.305
CUTE 1.7 + AOD 2 19 Oct 20:27:28 20:31:28 41° 261° (W) 20:35:29 437.475
YUBILEINY 19 Oct 20:27:53 20:34:46 25° 70° (ENE) 20:41:39 435.215
STARS 19 Oct 20:31:58 20:34:46 17° 293° (WNW) 20:37:33 437.465
SEEDS 19 Oct 20:36:03 20:40:10 55° 260° (W) 20:44:16 437.485
HO-68 19 Oct 20:36:30 20:43:22 49° 259° (W) 20:50:18 435.675
STRAND 1 19 Oct 20:38:11 20:43:07 44° 99° (E) 20:48:00 437.568
Oscar 11 19 Oct 20:41:23 20:44:50 24° 70° (ENE) 20:48:18 .
FO-29 19 Oct 21:00:29 21:04:50 17° 92° (E) 21:09:22 435.910
AAUSAT CUBESAT 2 19 Oct 21:02:24 21:06:28 65° 259° (W) 21:10:33 437.432
XW-2A 19 Oct 21:10:59 21:13:56 27° 263° (W) 21:16:53 145.665 - 145.685
AO-73 19 Oct 21:16:18 21:20:51 88° 250° (WSW) 21:25:27 145.935
CUBEBUG 2 19 Oct 21:20:06 21:23:39 22° 266° (W) 21:27:17 437.445
ZACube-1 19 Oct 21:38:10 21:42:30 43° 262° (W) 21:46:53 437.345
EO-88 19 Oct 21:59:34 22:01:58 17° 70° (ENE) 22:04:22 145.990 - 145.960
O/OREOS (USA 219) 19 Oct 22:01:10 22:05:37 54° 292° (WNW) 22:10:07 437.305
UWE-3 19 Oct 22:01:12 22:03:33 14° 268° (W) 22:05:55 435.000/436.395/437.385
Max Valier Satellite 19 Oct 22:06:41 22:09:58 30° 73° (ENE) 22:13:15 145.860
BEESAT 2 19 Oct 22:17:05 22:20:00 19° 51° (NE) 22:22:51 435.950
Oscar 11 19 Oct 22:17:16 22:20:50 25° 264° (W) 22:24:25 .
STRAND 1 19 Oct 22:18:18 22:21:55 20° 294° (WNW) 22:25:31 437.568
YUBILEINY 19 Oct 22:23:28 22:32:07 64° 268° (W) 22:40:47 435.215
BEESAT 3 19 Oct 22:34:51 22:38:48 78° 244° (WSW) 22:42:40 437.485
DELFI C3 19 Oct 22:37:14 22:41:07 70° 259° (W) 22:45:01 145.870
FO-29 19 Oct 22:43:13 22:50:13 81° 285° (WNW) 22:57:55 435.910
UNISAT 6 19 Oct 22:55:15 22:59:29 36° 97° (E) 23:03:37 437.425
TIGRISAT 19 Oct 23:10:05 23:14:33 49° 99° (E) 23:18:53 435.000
AO-85 19 Oct 23:13:35 23:18:08 55° 59° (ENE) 23:23:01 145.980
EO-88 19 Oct 23:32:23 23:35:23 24° 263° (W) 23:38:25 145.990 - 145.960
Max Valier Satellite 19 Oct 23:41:47 23:43:49 14° 267° (W) 23:45:51 145.860
BEESAT 2 19 Oct 23:54:09 23:57:47 33° 247° (WSW) 00:01:22 435.950
AIST 2D 20 Oct 00:01:35 00:03:54 17° 95° (E) 00:06:13 435.315
ESTCUBE 1 20 Oct 00:11:28 00:15:56 68° 76° (ENE) 00:20:24 437.505/2401.250
PRISM 20 Oct 00:12:33 00:16:39 66° 284° (WNW) 00:20:45 437.425
LO-87 20 Oct 00:23:22 00:26:49 48° 261° (W) 00:30:20 145.935 - 145.965
QB50P2 20 Oct 00:26:02 00:28:27 15° 93° (E) 00:30:49 145.880/145.840
RS-15 20 Oct 00:28:52 00:39:38 39° 105° (ESE) 00:50:28 29.354- 29.394
NANOSAT C BR1 20 Oct 00:30:22 00:32:15 13° 92° (E) 00:34:09 145.865
FO-29 20 Oct 00:31:08 00:34:23 14° 299° (WNW) 00:37:45 435.910
UNISAT 6 20 Oct 00:32:42 00:35:52 19° 293° (WNW) 00:38:59 437.425
DUCHIFAT 1 20 Oct 00:40:59 00:43:24 15° 93° (E) 00:45:49 145.980
TIGRISAT 20 Oct 00:48:20 00:50:43 14° 295° (WNW) 00:53:06 435.000
AO-85 20 Oct 00:55:30 00:58:12 15° 251° (WSW) 01:00:59 145.980
SPROUT 20 Oct 00:59:51 01:04:00 53° 74° (ENE) 01:08:11 437.525
DX 1 20 Oct 01:14:59 01:16:44 12° 65° (ENE) 01:18:28 434.975-435.025
50 SAT 20 Oct 01:17:17 01:18:00 11° 68° (ENE) 01:18:44 437.505
AIST 2D 20 Oct 01:34:21 01:36:59 21° 288° (WNW) 01:39:37 435.315
EO-79 20 Oct 01:35:18 01:39:35 87° 283° (WNW) 01:43:49 145.935-145.965
UKube-1 20 Oct 01:39:32 01:41:53 15° 66° (ENE) 01:44:14 .
POLYITAN 1 20 Oct 01:39:53 01:44:09 77° 284° (WNW) 01:48:22 437.675
VELOX 1 20 Oct 01:40:07 01:44:28 74° 257° (WSW) 01:48:52 145.980
QB50P2 20 Oct 02:00:23 02:04:20 38° 288° (WNW) 02:08:15 145.880/145.840
NANOSAT C BR1 20 Oct 02:04:06 02:08:09 43° 287° (WNW) 02:12:09 145.865
DUCHIFAT 1 20 Oct 02:15:16 02:19:10 37° 287° (WNW) 02:23:03 145.980
Oscar 19 20 Oct 02:19:13 02:23:25 25° 96° (E) 02:27:35 437.125/150
BUGSAT 1 20 Oct 02:24:50 02:29:01 63° 100° (E) 02:33:09 437.445
NO-84 20 Oct 02:34:17 02:36:04 12° 120° (ESE) 02:37:53 435.350 FM
SPROUT 20 Oct 02:39:19 02:40:10 10° 268° (W) 02:41:01 437.525
RS-15 20 Oct 02:39:28 02:51:32 61° 305° (NW) 03:03:43 29.354- 29.394
Gurwin Techsat 1B 20 Oct 02:46:07 02:50:53 33° 97° (E) 02:55:37 435.225
50 SAT 20 Oct 02:47:06 02:49:59 30° 262° (W) 02:52:54 437.505
DX 1 20 Oct 02:48:13 02:52:25 52° 260° (W) 02:56:39 434.975-435.025
BEESAT 20 Oct 02:50:07 02:51:48 12° 63° (ENE) 02:53:29 436.000
UKube-1 20 Oct 03:13:26 03:17:30 42° 261° (W) 03:21:36 .
M-CUBED/EXP-1 PRIME 20 Oct 03:23:02 03:26:39 88° 285° (WNW) 03:30:32 437.505
MOZHAYETS 4 20 Oct 03:43:40 03:48:07 47° 73° (ENE) 03:52:34
CUBESAT XI-V 20 Oct 03:56:16 03:58:24 13° 65° (ENE) 04:00:31 437.345
Oscar 19 20 Oct 03:58:10 04:02:42 32° 290° (WNW) 04:07:12 437.125/150
ITUPSAT 1 20 Oct 04:08:18 04:13:06 81° 75° (ENE) 04:17:56 437.325
NO-84 20 Oct 04:08:42 04:13:00 73° 313° (NW) 04:17:17 435.350 FM
AO-7 20 Oct 04:09:46 04:16:52 30° 98° (E) 04:23:55 .
BEESAT 20 Oct 04:24:12 04:28:57 67° 258° (WSW) 04:33:44 436.000
Gurwin Techsat 1B 20 Oct 04:26:14 04:30:39 27° 292° (WNW) 04:35:03 435.225
ITAMSAT 1 20 Oct 04:29:52 04:34:18 27° 97° (E) 04:38:41 435.822/435.867
RS-15 20 Oct 04:58:55 05:07:23 20° 333° (NNW) 05:15:48 29.354- 29.394
KKS-1 20 Oct 05:14:33 05:18:13 26° 69° (ENE) 05:21:54 437.445
MOZHAYETS 4 20 Oct 05:23:02 05:25:28 14° 267° (W) 05:27:55
DOVE 4 20 Oct 05:27:48 05:30:08 13° 92° (E) 05:32:30 437.250
